Location: Écuvilly
(49.6505°N, 2.9206°E)
Time: 06:39:32
(UTC+00:00)

YAOGAN 1 - Pass Details

Date: 17 November 2025
Orbit: 605 x 607 km, 97.8° (Epoch: 12 December)

Event Time Altitude Azimuth Distance (km) Brightness Sun altitude
Rises 16:31:08 0° 110° (ESE) 2,863 5.5 -4.9°
Reaches altitude 10° 16:34:29 10° 81° (E) 1,964 4.5 -5.4°
Maximum altitude 16:36:16 13° 56° (ENE) 1,805 4.3 -5.7°
Drops below altitude 10° 16:38:04 10° 31° (NNE) 1,969 4.7 -6.0°
Sets 16:41:25 0° 3° (N) 2,878 5.7 -6.5°
